Location: Star Hoppers Observatory
(42.7905°N, 83.6127°W)
Time: 08:18:30
(UTC-04:00)

Amateur Radio Satellites - All Passes

Search period start: 05 September 2015 07:48
Search period end: 06 September 2015 07:48
Location: Star Hoppers Observatory, 42.7905°N, 83.6127°W

Satellite Date Start Highest point End Downlink Frequencies (MHz)
Time Altitude Azimuth
PRISM 05 Sep 07:55:35 07:59:40 77° 75° (ENE) 08:03:45 437.425
CUTE-I 05 Sep 08:00:18 08:05:39 78° 102° (ESE) 08:11:00 437.470
CUBESAT XI-V 05 Sep 08:01:20 08:04:36 19° 269° (W) 08:07:46 437.345
YUBILEINY 05 Sep 08:06:11 08:14:39 48° 73° (ENE) 08:23:05 435.215
STRAND 1 05 Sep 08:08:15 08:13:17 60° 259° (W) 08:18:20 437.568
DOVE 4 05 Sep 08:33:57 08:36:17 13° 85° (E) 08:38:53 437.250
AIST 1 05 Sep 08:37:46 08:42:01 88° 278° (W) 08:46:19
BRITE-PL 05 Sep 08:38:09 08:43:25 41° 96° (E) 08:48:48 437.365/2234.400
GOMX 1 05 Sep 08:42:37 08:47:13 27° 92° (E) 08:51:52 467.674
ISS 05 Sep 08:44:08 08:47:23 72° 327° (NNW) 08:50:39 145.825
HO-68 05 Sep 08:45:42 08:49:55 17° 87° (E) 08:54:31 435.675
AO-7 05 Sep 08:47:14 08:50:04 12° 318° (NW) 08:52:28 29.400- 29.500
Cosmos 2491 05 Sep 08:56:43 09:04:48 47° 89° (E) 09:13:01 435.465 / 435.565
Cubesat XI-IV 05 Sep 08:57:16 09:02:04 34° 292° (WNW) 09:06:49 437.490
CUTE 1.7 + AOD 2 05 Sep 08:58:36 08:59:53 11° 87° (E) 09:01:25 437.475
PHONESAT 2.4 05 Sep 09:02:46 09:05:49 30° 200° (SSW) 09:08:51 2401.200-2431.200
SO-50 05 Sep 09:08:53 09:13:43 49° 50° (NE) 09:18:25 436.795
CANX-2 05 Sep 09:12:03 09:14:58 19° 91° (E) 09:18:00 2200.000
SEEDS 05 Sep 09:24:38 09:27:28 18° 91° (E) 09:30:24 437.485
DANDE 05 Sep 09:34:16 09:37:54 14° 56° (NE) 09:42:14 436.750
COMPASS 1 05 Sep 09:38:04 09:41:04 20° 92° (E) 09:44:09 437.405
CUTE-I 05 Sep 09:42:00 09:45:09 16° 300° (WNW) 09:48:07 437.470
AAUSAT CUBESAT 2 05 Sep 09:43:52 09:46:47 19° 92° (E) 09:49:49 437.432
M-CUBED/EXP-1 PRIME 05 Sep 09:44:06 09:46:08 13° 57° (ENE) 09:48:20 437.505
Oscar 11 05 Sep 09:58:16 09:59:59 12° 88° (E) 10:01:56 145.826/435.025
YUBILEINY 05 Sep 10:03:21 10:11:21 39° 273° (W) 10:19:11 435.215
PCSat 05 Sep 10:03:54 10:08:53 36° 50° (NE) 10:13:52 145.827
DOVE 4 05 Sep 10:09:24 10:14:46 81° 283° (WNW) 10:19:58 437.250
CUSAT 1 05 Sep 10:10:54 10:17:54 33° 67° (ENE) 10:25:11 437.405
UNISAT 6 05 Sep 10:12:00 10:15:24 21° 66° (ENE) 10:18:56 437.425
BRITE-PL 05 Sep 10:16:54 10:21:47 31° 292° (WNW) 10:26:40 437.365/2234.400
CINEMA 3 05 Sep 10:18:42 10:23:36 57° 99° (E) 10:28:21 145.822/145.860
Cosmos 2504 05 Sep 10:18:58 10:26:58 45° 72° (ENE) 10:34:31 435.465 / 435.565
GOMX 1 05 Sep 10:20:16 10:25:28 43° 290° (WNW) 10:30:36 467.674
ISS 05 Sep 10:21:40 10:24:14 21° 347° (NNW) 10:26:47 145.825
HO-68 05 Sep 10:31:27 10:38:42 88° 287° (WNW) 10:45:55 435.675
CUTE 1.7 + AOD 2 05 Sep 10:32:07 10:36:18 62° 286° (WNW) 10:40:26 437.475
TIGRISAT 05 Sep 10:37:31 10:41:44 34° 70° (ENE) 10:46:01 435.000
NANOSAT C BR1 05 Sep 10:40:15 10:42:08 13° 63° (ENE) 10:44:14 145.865
QB50P2 05 Sep 10:42:50 10:45:09 15° 64° (ENE) 10:47:38 145.880/145.840
CANX-2 05 Sep 10:47:09 10:51:05 38° 289° (WNW) 10:54:58 2200.000
SO-50 05 Sep 10:50:05 10:53:58 23° 248° (WSW) 10:57:41 436.795
ZACube-1 05 Sep 10:50:48 10:54:45 31° 95° (E) 10:58:38 437.345
Cosmos 2491 05 Sep 10:53:45 11:01:51 40° 290° (WNW) 11:09:52 435.465 / 435.565
FUNcube-1 05 Sep 10:53:48 10:57:47 32° 95° (E) 11:01:42 145.935
QB50P1 05 Sep 10:54:55 10:57:51 19° 66° (ENE) 11:00:56 145.935-145.965
HUMSAT D 05 Sep 10:55:38 10:57:27 13° 88° (E) 10:59:28 437.325/437.525
ANTELSAT 05 Sep 10:56:21 11:00:56 55° 73° (ENE) 11:05:34 437.575/2403.000
SEEDS 05 Sep 10:59:32 11:03:27 38° 288° (WNW) 11:07:18 437.485
AUBIESAT-1 05 Sep 11:05:21 11:10:01 63° 69° (ENE) 11:14:32 437.475
DELFI C3 05 Sep 11:06:44 11:10:34 44° 98° (E) 11:14:24 145.870
UWE-3 05 Sep 11:08:44 11:13:17 65° 100° (E) 11:17:39 435.000/436.395/437.385
CUBEBUG 2 05 Sep 11:12:22 11:17:04 89° 274° (W) 11:21:33 437.445
COMPASS 1 05 Sep 11:13:03 11:16:52 35° 289° (WNW) 11:20:36 437.405
DANDE 05 Sep 11:14:50 11:22:40 61° 75° (ENE) 11:31:07 436.750
M-CUBED/EXP-1 PRIME 05 Sep 11:15:33 11:20:21 88° 252° (WSW) 11:25:01 437.505
AAUSAT CUBESAT 2 05 Sep 11:18:44 11:22:32 35° 289° (WNW) 11:26:17 437.432
Oscar 11 05 Sep 11:32:23 11:36:39 60° 285° (WNW) 11:40:51 145.826/435.025
DX 1 05 Sep 11:33:44 11:36:49 19° 92° (E) 11:40:01 434.975-435.025
UKube-1 05 Sep 11:38:18 11:41:20 19° 92° (E) 11:44:29 .
BUGSAT 1 05 Sep 11:39:33 11:43:11 32° 70° (ENE) 11:46:55 437.445
UNISAT 6 05 Sep 11:47:21 11:51:52 46° 261° (W) 11:56:25 437.425
PCSat 05 Sep 11:47:22 11:52:19 36° 248° (WSW) 11:57:11 145.827
DOVE 4 05 Sep 11:49:32 11:51:42 12° 301° (WNW) 11:53:34 437.250
CUSAT 1 05 Sep 11:52:59 12:00:56 62° 265° (W) 12:08:52 437.405
DUCHIFAT 1 05 Sep 11:53:46 11:58:00 76° 76° (ENE) 12:02:18 145.980
CINEMA 3 05 Sep 11:56:56 12:00:20 18° 296° (WNW) 12:03:32 145.822/145.860
POLYITAN 1 05 Sep 11:57:25 12:01:43 88° 68° (ENE) 12:06:03 437.675
POPSAT HIP 1 05 Sep 11:57:58 12:02:14 87° 77° (ENE) 12:06:33 437.405
ISS 05 Sep 11:59:07 12:01:28 18° 7° (N) 12:03:50 145.825
CUBEBUG 1 05 Sep 12:01:29 12:04:03 16° 90° (E) 12:06:48 437.445
Cosmos 2504 05 Sep 12:11:26 12:19:06 40° 273° (W) 12:26:11 435.465 / 435.565
NANOSAT C BR1 05 Sep 12:13:16 12:17:29 64° 259° (W) 12:21:44 145.865
TIGRISAT 05 Sep 12:14:33 12:18:31 26° 266° (W) 12:22:27 435.000
AISAT 05 Sep 12:15:41 12:19:49 36° 97° (E) 12:23:58 437.250
QB50P2 05 Sep 12:16:25 12:20:37 56° 260° (W) 12:24:51 145.880/145.840
HO-68 05 Sep 12:20:41 12:25:35 19° 305° (NW) 12:30:12 435.675
ESTCUBE 1 05 Sep 12:21:22 12:25:20 30° 95° (E) 12:29:22 437.505/2401.250
ZACube-1 05 Sep 12:27:17 12:31:00 26° 292° (WNW) 12:34:33 437.345
QB50P1 05 Sep 12:29:24 12:33:27 41° 262° (W) 12:37:31 145.935-145.965
HUMSAT D 05 Sep 12:29:29 12:33:38 55° 286° (WNW) 12:37:41 437.325/437.525
FUNcube-1 05 Sep 12:30:20 12:33:59 25° 292° (WNW) 12:37:28 145.935
ANTELSAT 05 Sep 12:35:02 12:38:05 16° 271° (W) 12:40:58 437.575/2403.000
VELOX 1 05 Sep 12:42:09 12:46:37 66° 101° (E) 12:51:04 145.980
AUBIESAT-1 05 Sep 12:42:16 12:45:04 15° 265° (W) 12:47:37 437.475
DELFI C3 05 Sep 12:42:52 12:45:18 15° 294° (WNW) 12:47:36 145.870
50 SAT 05 Sep 12:43:48 12:47:41 89° 286° (WNW) 12:51:30 437.505
UWE-3 05 Sep 12:46:50 12:49:17 14° 297° (WNW) 12:51:31 435.000/436.395/437.385
CUBEBUG 2 05 Sep 12:51:52 12:53:01 11° 300° (WNW) 12:53:55 437.445
GONETS M04 05 Sep 12:54:58 13:01:39 24° 62° (ENE) 13:08:40
M-CUBED/EXP-1 PRIME 05 Sep 12:55:21 12:55:45 10° 269° (W) 12:55:48 437.505
DANDE 05 Sep 12:58:31 13:05:33 34° 271° (W) 13:12:46 436.750
DX 1 05 Sep 13:09:08 13:13:17 41° 289° (WNW) 13:17:23 434.975-435.025
SPROUT 05 Sep 13:12:03 13:15:45 27° 95° (E) 13:19:29 437.525
UKube-1 05 Sep 13:13:34 13:17:40 40° 289° (WNW) 13:21:43 .
BUGSAT 1 05 Sep 13:15:31 13:18:44 21° 267° (W) 13:21:54 437.445
Gurwin Techsat 1B 05 Sep 13:18:37 13:19:12 10° 57° (ENE) 13:20:05 435.225
Oscar 19 05 Sep 13:31:01 13:35:46 39° 69° (ENE) 13:40:36 437.125/150
ISS 05 Sep 13:35:19 13:38:29 44° 27° (NNE) 13:41:36 145.825
CUBEBUG 1 05 Sep 13:36:26 13:40:45 51° 287° (WNW) 13:45:03 437.445
CUSAT 1 05 Sep 13:38:57 13:42:17 12° 281° (W) 13:45:01 437.405
AISAT 05 Sep 13:52:36 13:56:13 23° 293° (WNW) 13:59:43 437.250
TISAT 1 05 Sep 13:55:14 13:59:20 44° 99° (E) 14:03:26 437.305
JAS-2 05 Sep 13:56:08 14:01:18 20° 57° (ENE) 14:06:43 435.910
ESTCUBE 1 05 Sep 13:58:19 14:02:08 27° 292° (WNW) 14:05:54 437.505/2401.250
BEESAT 3 05 Sep 14:00:03 14:03:22 25° 114° (ESE) 14:06:46 437.485
Cosmos 2499 05 Sep 14:06:13 14:11:26 18° 56° (ENE) 14:16:52 435.465 / 435.565
AO-7 05 Sep 14:10:55 14:14:54 15° 45° (NE) 14:19:15 29.400- 29.500
BEESAT 2 05 Sep 14:19:40 14:23:14 30° 116° (ESE) 14:26:52 435.950
VELOX 1 05 Sep 14:20:19 14:22:41 14° 297° (WNW) 14:24:51 145.980
SWISSCUBE 05 Sep 14:23:13 14:26:18 17° 91° (E) 14:29:31 437.505
ITAMSAT 1 05 Sep 14:41:09 14:46:01 45° 70° (ENE) 14:50:57 435.822/435.867
SPROUT 05 Sep 14:48:02 14:51:47 28° 291° (WNW) 14:55:26 437.525
GONETS M04 05 Sep 14:50:49 14:59:39 78° 264° (W) 15:08:27
Gurwin Techsat 1B 05 Sep 14:53:04 14:58:20 70° 74° (ENE) 15:03:39 435.225
ITUPSAT 1 05 Sep 15:03:23 15:07:50 39° 97° (E) 15:12:18 437.325
Oscar 19 05 Sep 15:10:51 15:15:15 27° 266° (W) 15:19:35 437.125/150
ISS 05 Sep 15:12:01 15:14:45 25° 224° (SW) 15:17:26 145.825
RS-15 05 Sep 15:24:23 15:33:57 39° 108° (ESE) 15:44:04 29.354- 29.394
AIST 2 05 Sep 15:31:29 15:35:19 34° 116° (ESE) 15:39:12 435.215
TISAT 1 05 Sep 15:31:51 15:34:47 18° 295° (WNW) 15:37:35 437.305
HORYU 2 05 Sep 15:32:26 15:35:17 17° 64° (ENE) 15:38:17 437.375
BEESAT 05 Sep 15:32:58 15:37:46 79° 103° (ESE) 15:42:31 436.000
BEESAT 3 05 Sep 15:37:27 15:41:10 33° 312° (NW) 15:44:54 437.485
JAS-2 05 Sep 15:37:34 15:45:24 84° 75° (ENE) 15:53:14 435.910
BEESAT 2 05 Sep 15:57:38 16:01:15 29° 313° (NW) 16:04:52 435.950
Cosmos 2499 05 Sep 15:57:42 16:06:22 82° 81° (E) 16:14:20 435.465 / 435.565
AO-7 05 Sep 15:58:03 16:06:09 60° 66° (ENE) 16:14:19 29.400- 29.500
SWISSCUBE 05 Sep 15:59:53 16:04:31 52° 288° (WNW) 16:09:07 437.505
ITAMSAT 1 05 Sep 16:21:38 16:25:47 23° 268° (W) 16:29:48 435.822/435.867
STARS 05 Sep 16:24:29 16:28:14 27° 95° (E) 16:32:02 437.465
Gurwin Techsat 1B 05 Sep 16:35:47 16:38:56 15° 272° (W) 16:41:51 435.225
ITUPSAT 1 05 Sep 16:41:41 16:45:33 24° 294° (WNW) 16:49:17 437.325
GONETS M04 05 Sep 16:50:23 16:55:12 15° 283° (WNW) 16:59:26
KKS-1 05 Sep 16:56:02 17:00:34 83° 284° (WNW) 17:05:03 437.445
HORYU 2 05 Sep 17:07:10 17:11:33 51° 260° (W) 17:15:58 437.375
AIST 2 05 Sep 17:10:15 17:13:56 27° 314° (NW) 17:17:36 435.215
BEESAT 05 Sep 17:12:47 17:15:01 13° 299° (WNW) 17:17:03 436.000
JAS-2 05 Sep 17:25:32 17:31:19 21° 274° (W) 17:36:47 435.910
RS-15 05 Sep 17:34:56 17:45:50 65° 311° (NW) 17:57:13 29.354- 29.394
CUTE-I 05 Sep 17:45:09 17:48:47 20° 62° (ENE) 17:52:34 437.470
MOZHAYETS 4 05 Sep 17:46:39 17:51:06 52° 99° (E) 17:55:34
AO-7 05 Sep 17:52:05 17:59:26 32° 265° (W) 18:06:37 29.400- 29.500
Cosmos 2499 05 Sep 17:52:31 17:58:30 21° 281° (W) 18:03:50 435.465 / 435.565
STARS 05 Sep 18:00:46 18:04:40 30° 291° (WNW) 18:08:30 437.465
O/OREOS (USA 219) 05 Sep 18:03:35 18:06:48 20° 102° (ESE) 18:10:11 437.305
CUBESAT XI-V 05 Sep 18:21:02 18:21:49 10° 86° (E) 18:22:55 437.345
Cubesat XI-IV 05 Sep 18:39:55 18:45:07 57° 72° (ENE) 18:50:21 437.490
AIST 1 05 Sep 18:44:24 18:47:56 24° 72° (ENE) 18:51:34
Cosmos 2491 05 Sep 19:06:09 19:12:47 24° 62° (ENE) 19:19:45 435.465 / 435.565
HO-68 05 Sep 19:16:46 19:20:41 16° 53° (NE) 19:24:55 435.675
CUTE-I 05 Sep 19:23:12 19:28:26 61° 259° (W) 19:33:43 437.470
MOZHAYETS 4 05 Sep 19:24:56 19:27:58 17° 295° (WNW) 19:30:50
DOVE 4 05 Sep 19:40:31 19:43:01 14° 61° (ENE) 19:45:47 437.250
O/OREOS (USA 219) 05 Sep 19:41:37 19:45:57 42° 299° (WNW) 19:50:20 437.305
BRITE-PL 05 Sep 19:50:09 19:54:25 43° 70° (ENE) 19:59:06 437.365/2234.400
GOMX 1 05 Sep 19:51:45 19:55:43 28° 67° (ENE) 20:00:00 467.674
RS-15 05 Sep 19:51:51 20:01:09 28° 342° (NNW) 20:10:40 29.354- 29.394
CUTE 1.7 + AOD 2 05 Sep 19:53:28 19:54:12 10° 62° (ENE) 19:55:08 437.475
CUBESAT XI-V 05 Sep 19:55:16 19:59:56 80° 284° (WNW) 20:04:36 437.345
CANX-2 05 Sep 20:06:19 20:08:55 16° 65° (ENE) 20:11:39 2200.000
STRAND 1 05 Sep 20:17:55 20:22:47 43° 98° (E) 20:27:39 437.568
SEEDS 05 Sep 20:18:03 20:20:30 16° 65° (ENE) 20:23:04 437.485
AIST 1 05 Sep 20:21:49 20:25:37 29° 269° (W) 20:29:21
Cubesat XI-IV 05 Sep 20:21:52 20:25:40 19° 270° (W) 20:29:17 437.490
COMPASS 1 05 Sep 20:30:35 20:33:09 16° 66° (ENE) 20:35:50 437.405
AAUSAT CUBESAT 2 05 Sep 20:36:00 20:38:26 16° 66° (ENE) 20:41:02 437.432
CUBEBUG 2 05 Sep 20:38:33 20:39:22 11° 60° (ENE) 20:40:28 437.445
Oscar 11 05 Sep 20:54:35 20:56:11 12° 63° (ENE) 20:57:59 145.826/435.025
HO-68 05 Sep 21:00:14 21:07:23 75° 71° (ENE) 21:14:35 435.675
Cosmos 2491 05 Sep 21:02:00 21:10:47 78° 265° (W) 21:19:32 435.465 / 435.565
YUBILEINY 05 Sep 21:07:48 21:16:11 53° 90° (E) 21:24:42 435.215
PRISM 05 Sep 21:12:05 21:16:12 72° 286° (WNW) 21:20:19 437.425
DOVE 4 05 Sep 21:15:21 21:20:06 76° 259° (W) 21:25:12 437.250
CINEMA 3 05 Sep 21:20:34 21:25:17 57° 73° (ENE) 21:30:11 145.822/145.860
CUTE 1.7 + AOD 2 05 Sep 21:25:14 21:29:31 81° 258° (WSW) 21:33:49 437.475
GOMX 1 05 Sep 21:29:28 21:33:44 34° 266° (W) 21:38:15 467.674
BRITE-PL 05 Sep 21:29:52 21:33:17 20° 271° (W) 21:36:46 437.365/2234.400
CANX-2 05 Sep 21:40:19 21:44:29 49° 261° (W) 21:48:39 2200.000
ZACube-1 05 Sep 21:47:16 21:51:11 29° 69° (ENE) 21:55:11 437.345
HUMSAT D 05 Sep 21:48:54 21:50:23 12° 63° (ENE) 21:52:06 437.325/437.525
FUNcube-1 05 Sep 21:50:00 21:53:58 30° 69° (ENE) 21:57:59 145.935
SEEDS 05 Sep 21:51:46 21:55:54 51° 261° (W) 22:00:03 437.485
DELFI C3 05 Sep 21:54:33 21:58:05 30° 70° (ENE) 22:01:40 145.870
STRAND 1 05 Sep 21:57:38 22:01:47 25° 295° (WNW) 22:05:50 437.568
COMPASS 1 05 Sep 22:04:25 22:08:29 47° 261° (W) 22:12:32 437.405
UWE-3 05 Sep 22:05:59 22:10:33 58° 73° (ENE) 22:15:11 435.000/436.395/437.385
RS-15 05 Sep 22:09:15 22:18:33 27° 16° (NNE) 22:28:19 29.354- 29.394
AAUSAT CUBESAT 2 05 Sep 22:09:38 22:13:41 48° 261° (W) 22:17:45 437.432
CUBEBUG 2 05 Sep 22:10:37 22:15:19 83° 76° (ENE) 22:20:07 437.445
BEESAT 3 05 Sep 22:17:18 22:20:32 22° 44° (NE) 22:23:45 437.485
Oscar 11 05 Sep 22:27:30 22:31:50 72° 259° (W) 22:36:11 145.826/435.025
DX 1 05 Sep 22:30:25 22:33:27 19° 65° (ENE) 22:36:37 434.975-435.025
UKube-1 05 Sep 22:34:10 22:37:09 19° 65° (ENE) 22:40:15 .
BEESAT 2 05 Sep 22:37:39 22:41:06 26° 46° (NE) 22:44:34 435.950
Cosmos 2504 05 Sep 22:49:50 22:56:55 34° 85° (E) 23:04:27 435.465 / 435.565
HO-68 05 Sep 22:50:36 22:55:55 21° 271° (W) 23:00:57 435.675
ANTELSAT 05 Sep 22:50:49 22:51:18 10° 86° (E) 22:52:06 437.575/2403.000
CUBEBUG 1 05 Sep 22:58:58 23:01:23 15° 64° (ENE) 23:03:58 437.445
CINEMA 3 05 Sep 22:59:42 23:02:55 17° 272° (W) 23:06:00 145.822/145.860
Cosmos 2491 05 Sep 23:01:39 23:06:21 15° 283° (WNW) 23:10:27 435.465 / 435.565
YUBILEINY 05 Sep 23:05:25 23:13:25 36° 292° (WNW) 23:21:19 435.215
AISAT 05 Sep 23:14:08 23:18:08 35° 70° (ENE) 23:22:13 437.250
CUSAT 1 05 Sep 23:19:56 23:23:07 19° 82° (E) 23:27:07 437.405
HUMSAT D 05 Sep 23:21:15 23:25:35 74° 258° (WSW) 23:29:56 437.325/437.525
ESTCUBE 1 05 Sep 23:21:50 23:25:45 31° 69° (ENE) 23:29:45 437.505/2401.250
ZACube-1 05 Sep 23:23:26 23:27:28 30° 265° (W) 23:31:30 437.345
FUNcube-1 05 Sep 23:26:14 23:30:14 29° 266° (W) 23:34:12 145.935
SO-50 05 Sep 23:26:41 23:28:36 13° 108° (ESE) 23:30:47 436.795
50 SAT 05 Sep 23:27:29 23:31:20 54° 74° (ENE) 23:35:12 437.505
DELFI C3 05 Sep 23:30:01 23:33:11 21° 267° (W) 23:36:17 145.870
UNISAT 6 05 Sep 23:38:43 23:42:51 35° 96° (E) 23:46:54 437.425
DUCHIFAT 1 05 Sep 23:39:49 23:41:10 11° 88° (E) 23:42:45 145.980
VELOX 1 05 Sep 23:40:16 23:44:37 64° 74° (ENE) 23:49:02 145.980
POLYITAN 1 05 Sep 23:43:35 23:45:44 14° 89° (E) 23:48:05 437.675
POPSAT HIP 1 05 Sep 23:43:55 23:46:01 14° 89° (E) 23:48:18 437.405
UWE-3 05 Sep 23:44:42 23:47:30 15° 272° (W) 23:50:07 435.000/436.395/437.385
CUBEBUG 2 05 Sep 23:51:32 23:52:44 11° 275° (W) 23:53:37 437.445
AIST 2 05 Sep 23:52:14 23:55:59 31° 47° (NE) 23:59:42 435.215
BEESAT 3 05 Sep 23:54:48 23:58:36 39° 243° (WSW) 00:02:19 437.485
NANOSAT C BR1 05 Sep 23:58:04 00:01:07 19° 92° (E) 00:04:16 145.865
QB50P2 06 Sep 00:01:25 00:04:45 22° 93° (E) 00:08:09 145.880/145.840
TIGRISAT 06 Sep 00:04:42 00:09:13 64° 101° (E) 00:13:35 435.000
DX 1 06 Sep 00:05:18 00:09:26 42° 261° (W) 00:13:34 434.975-435.025
SPROUT 06 Sep 00:07:08 00:10:34 24° 68° (ENE) 00:14:05 437.525
UKube-1 06 Sep 00:08:53 00:13:00 42° 261° (W) 00:17:07 .
QB50P1 06 Sep 00:13:42 00:17:26 29° 95° (E) 00:21:11 145.935-145.965
BEESAT 2 06 Sep 00:15:31 00:19:11 32° 244° (WSW) 00:22:45 435.950
AUBIESAT-1 06 Sep 00:20:26 00:23:54 35° 102° (ESE) 00:27:10 437.475
RS-15 06 Sep 00:22:41 00:34:15 59° 46° (NE) 00:46:19 29.354- 29.394
ANTELSAT 06 Sep 00:24:15 00:28:47 77° 285° (WNW) 00:33:10 437.575/2403.000
DANDE 06 Sep 00:28:03 00:31:53 50° 93° (E) 00:37:06 436.750
M-CUBED/EXP-1 PRIME 06 Sep 00:31:14 00:35:02 61° 106° (ESE) 00:38:31 437.505
CUBEBUG 1 06 Sep 00:33:05 00:37:20 55° 260° (W) 00:41:37 437.445
Cosmos 2504 06 Sep 00:40:39 00:48:48 55° 285° (WNW) 00:57:14 435.465 / 435.565
PCSat 06 Sep 00:47:06 00:51:27 26° 109° (ESE) 00:55:55 145.827
TISAT 1 06 Sep 00:47:59 00:51:51 37° 70° (ENE) 00:55:47 437.305
AISAT 06 Sep 00:51:19 00:54:49 22° 267° (W) 00:58:16 437.250
BUGSAT 1 06 Sep 00:55:36 00:59:46 50° 99° (E) 01:03:55 437.445
ESTCUBE 1 06 Sep 00:58:53 01:02:39 26° 266° (W) 01:06:22 437.505/2401.250
CUSAT 1 06 Sep 01:00:31 01:04:55 49° 288° (WNW) 01:10:47 437.405
SO-50 06 Sep 01:03:42 01:08:31 83° 306° (NW) 01:13:28 436.795
50 SAT 06 Sep 01:04:37 01:06:14 12° 271° (W) 01:07:38 437.505
BEESAT 06 Sep 01:05:46 01:07:37 12° 61° (ENE) 01:09:41 436.000
DUCHIFAT 1 06 Sep 01:13:13 01:17:29 64° 286° (WNW) 01:21:41 145.980
UNISAT 6 06 Sep 01:15:49 01:19:28 24° 293° (WNW) 01:22:57 437.425
POLYITAN 1 06 Sep 01:17:48 01:22:02 54° 287° (WNW) 01:26:12 437.675
POPSAT HIP 1 06 Sep 01:18:03 01:22:17 55° 287° (WNW) 01:26:27 437.405
VELOX 1 06 Sep 01:19:46 01:21:41 12° 272° (W) 01:23:22 145.980
SWISSCUBE 06 Sep 01:30:32 01:34:10 23° 66° (ENE) 01:37:57 437.505
AIST 2 06 Sep 01:30:52 01:34:29 28° 245° (WSW) 01:38:00 435.215
NANOSAT C BR1 06 Sep 01:33:07 01:37:07 38° 289° (WNW) 01:41:03 145.865
QB50P2 06 Sep 01:36:49 01:40:44 33° 290° (WNW) 01:44:34 145.880/145.840
SPROUT 06 Sep 01:42:39 01:46:30 31° 264° (W) 01:50:23 437.525
TIGRISAT 06 Sep 01:42:59 01:45:26 14° 298° (WNW) 01:47:42 435.000
Oscar 19 06 Sep 01:43:37 01:45:35 12° 86° (E) 01:47:53 437.125/150
QB50P1 06 Sep 01:49:36 01:53:13 26° 292° (WNW) 01:56:43 145.935-145.965
AUBIESAT-1 06 Sep 01:55:51 01:58:22 17° 301° (WNW) 02:00:40 437.475
GONETS M04 06 Sep 01:58:22 02:04:54 26° 82° (E) 02:11:46
M-CUBED/EXP-1 PRIME 06 Sep 02:07:56 02:09:17 11° 304° (NW) 02:10:28 437.505
ITUPSAT 1 06 Sep 02:10:51 02:15:26 50° 72° (ENE) 02:20:03 437.325
DANDE 06 Sep 02:12:50 02:15:50 17° 302° (WNW) 02:19:11 436.750
KKS-1 06 Sep 02:21:51 02:23:06 11° 61° (ENE) 02:24:35 437.445
TISAT 1 06 Sep 02:24:37 02:27:46 20° 268° (W) 02:30:49 437.305
VERMONT LUNAR 06 Sep 02:27:30 02:30:07 27° 161° (SSE) 02:32:45 437.305
PCSat 06 Sep 02:29:23 02:34:37 48° 306° (NW) 02:39:53 145.827
BUGSAT 1 06 Sep 02:32:08 02:34:51 16° 295° (WNW) 02:37:25 437.445
RS-15 06 Sep 02:35:30 02:46:42 48° 249° (WSW) 02:58:01 29.354- 29.394
BEESAT 06 Sep 02:40:04 02:44:51 83° 257° (WSW) 02:49:38 436.000
Cosmos 2504 06 Sep 02:40:38 02:43:31 11° 309° (NW) 02:45:47 435.465 / 435.565
SO-50 06 Sep 02:46:41 02:49:52 17° 325° (NW) 02:52:58 436.795
Cosmos 2499 06 Sep 02:47:09 02:50:09 13° 75° (ENE) 02:53:52 435.465 / 435.565
ITAMSAT 1 06 Sep 02:54:32 02:57:14 15° 88° (E) 03:00:11 435.822/435.867
SWISSCUBE 06 Sep 03:07:19 03:11:49 41° 262° (W) 03:16:19 437.505
Gurwin Techsat 1B 06 Sep 03:09:00 03:13:21 26° 93° (E) 03:17:48 435.225
Oscar 19 06 Sep 03:20:28 03:25:42 81° 287° (WNW) 03:30:53 437.125/150
STARS 06 Sep 03:22:09 03:25:51 27° 68° (ENE) 03:29:38 437.465
PHONESAT 2.4 06 Sep 03:26:12 03:27:20 11° 149° (SSE) 03:28:32 2401.200-2431.200
ITUPSAT 1 06 Sep 03:50:18 03:53:39 18° 269° (W) 03:56:51 437.325
GONETS M04 06 Sep 03:52:23 04:01:03 70° 281° (WNW) 04:09:47
KKS-1 06 Sep 03:54:40 03:59:08 83° 257° (WSW) 04:03:38 437.445
AO-7 06 Sep 04:00:40 04:05:13 16° 86° (E) 04:10:15 29.400- 29.500
VERMONT LUNAR 06 Sep 04:03:18 04:06:15 54° 177° (S) 04:09:11 437.305
O/OREOS (USA 219) 06 Sep 04:11:24 04:15:49 44° 62° (ENE) 04:20:13 437.305
PCSat 06 Sep 04:17:53 04:19:30 11° 329° (NNW) 04:20:56 145.827
ITAMSAT 1 06 Sep 04:32:10 04:37:21 71° 287° (WNW) 04:42:31 435.822/435.867
JAS-2 06 Sep 04:32:50 04:39:37 71° 101° (E) 04:45:33 435.910
Cosmos 2499 06 Sep 04:33:18 04:41:46 66° 93° (E) 04:50:35 435.465 / 435.565
Gurwin Techsat 1B 06 Sep 04:48:31 04:53:31 42° 291° (WNW) 04:58:27 435.225
MOZHAYETS 4 06 Sep 04:49:08 04:53:37 54° 73° (ENE) 04:58:06
HORYU 2 06 Sep 04:57:49 05:01:36 27° 95° (E) 05:05:25 437.375
STARS 06 Sep 04:58:18 05:02:13 30° 265° (W) 05:06:06 437.465
PHONESAT 2.4 06 Sep 05:01:28 05:04:39 36° 164° (SSE) 05:07:51 2401.200-2431.200
Oscar 19 06 Sep 05:02:23 05:04:19 12° 302° (WNW) 05:05:57 437.125/150
CUBESAT XI-V 06 Sep 05:25:08 05:26:57 13° 62° (ENE) 05:29:00 437.345
VERMONT LUNAR 06 Sep 05:39:38 05:42:26 37° 194° (SSW) 05:45:13 437.305
AO-7 06 Sep 05:51:05 05:59:26 82° 107° (ESE) 06:07:44 29.400- 29.500
O/OREOS (USA 219) 06 Sep 05:51:37 05:54:57 19° 258° (WSW) 05:58:08 437.305
GONETS M04 06 Sep 05:55:13 06:00:00 15° 306° (NW) 06:04:16
ITAMSAT 1 06 Sep 06:15:27 06:16:02 10° 303° (WNW) 06:16:20 435.822/435.867
JAS-2 06 Sep 06:18:57 06:23:58 22° 302° (WNW) 06:28:24 435.910
Cosmos 2499 06 Sep 06:28:13 06:35:43 30° 295° (WNW) 06:43:10 435.465 / 435.565
MOZHAYETS 4 06 Sep 06:28:21 06:31:13 16° 271° (W) 06:33:54
HORYU 2 06 Sep 06:34:20 06:38:13 29° 292° (WNW) 06:42:01 437.375
PHONESAT 2.4 06 Sep 06:38:56 06:42:18 59° 180° (S) 06:45:40 2401.200-2431.200
Cubesat XI-IV 06 Sep 06:57:06 07:01:02 21° 91° (E) 07:05:06 437.490
CUBESAT XI-V 06 Sep 06:59:15 07:03:50 76° 258° (WSW) 07:08:27 437.345
AIST 1 06 Sep 07:16:24 07:18:23 13° 86° (E) 07:20:35
VERMONT LUNAR 06 Sep 07:17:07 07:18:20 12° 209° (SSW) 07:19:30 437.305
YUBILEINY 06 Sep 07:17:15 07:24:24 28° 64° (ENE) 07:31:45 435.215
STRAND 1 06 Sep 07:34:31 07:39:34 67° 73° (ENE) 07:44:39 437.568
